Marianna, FL

6:08 AM CST on January 18, 2018 (GMT -0600)
Marianna Municipal

Weather History for KMAI - June, 2014

Change the Weather History Date:

Saturday, June 7, 2014

  Actual Average Record
Temperature  
Mean Temperature 79 °F 80 °F  
Max Temperature 90 °F 90 °F 99 °F (2008)
Min Temperature 68 °F 69 °F 57 °F (2006)
Degree Days  
Heating Degree Days 0    
Month to date heating degree days 0  
Since 1 June heating degree days 0  
Since 1 July heating degree days 1748  
Cooling Degree Days 14    
Month to date cooling degree days 98  
Year to date cooling degree days 532  
Since 1 June cooling degree days 98  
Growing Degree Days 28 (Base 50)    
Moisture  
Dew Point 74 °F    
Average Humidity 82    
Maximum Humidity 100    
Minimum Humidity 63    
Precipitation  
Precipitation T in 0.16 in 0.73 in (2017)
Month to date precipitation 0.56 1.25  
Year to date precipitation 32.28 23.47  
Sea Level Pressure  
Sea Level Pressure 29.96 in    
Wind  
Wind Speed 4 mph (WSW)    
Max Wind Speed 12 mph    
Max Gust Speed 13 mph    
Visibility 10 miles    
Events Rain    
T = Trace of Precipitation, MM = Missing Value Source: NWS Daily Summary

Daily Weather History Graph

Daily Weather History Graph

Search for Another Location

Airport or City:

Trip Planner

Search our weather history database for the weather conditions in past years. The results will help you decide how hot, cold, wet, or windy it might be!

Date:

Astronomy

Jun. 07, 2014 Rise Set
Actual Time 5:37 AM CDT 7:42 PM CDT
Civil Twilight 5:09 AM CDT 8:09 PM CDT
Nautical Twilight 4:36 AM CDT 8:43 PM CDT
Astronomical Twilight 4:00 AM CDT 9:19 PM CDT
Moon 2:19 PM CDT (6/7) 1:36 AM CDT (6/7)
Length of Visible Light 15h 00m
Length of Day
14h 05m
Waxing Gibbous, 68% of the Moon is Illuminated
Jun 7
Waxing Gibbous
Jun 12
Full
Jun 19
Last Quarter
Jun 27
New
Jul 5
First Quarter

Hourly Weather History & Observations

Time (CDT) Temp. Heat Index Dew Point Humidity Pressure Visibility Wind Dir Wind Speed Gust Speed Precip Events Conditions
12:53 AM 70.0 °F - 69.1 °F 97% 29.91 in 10.0 mi NW 4.6 mph - N/A   Clear
1:53 AM 69.1 °F - 69.1 °F 100% 29.92 in 10.0 mi WSW 5.8 mph - N/A   Clear
2:53 AM 69.1 °F - 69.1 °F 100% 29.91 in 10.0 mi WSW 3.5 mph - N/A   Clear
3:53 AM 68.0 °F - 68.0 °F 100% 29.94 in 10.0 mi WNW 3.5 mph - N/A   Clear
4:53 AM 68.0 °F - 68.0 °F 100% 29.98 in 10.0 mi ENE 4.6 mph - N/A   Clear
5:44 AM 69.1 °F - 69.1 °F 100% 29.99 in 10.0 mi East 5.8 mph - N/A   Mostly Cloudy
5:53 AM 69.1 °F - 69.1 °F 100% 29.99 in 10.0 mi East 5.8 mph - N/A   Overcast
7:00 AM 70.0 °F - 70.0 °F 100% 30.00 in 10.0 mi SE 3.5 mph - N/A   Scattered Clouds
7:53 AM 73.0 °F - 71.1 °F 93% 30.01 in 10.0 mi Calm Calm - N/A   Scattered Clouds
8:53 AM 75.9 °F - 72.0 °F 87% 30.01 in 10.0 mi Calm Calm - 0.00 in Rain Light Rain
9:53 AM 80.1 °F 84.5 °F 73.9 °F 81% 30.02 in 10.0 mi Calm Calm - 0.00 in   Partly Cloudy
10:48 AM 84.2 °F 92.3 °F 75.2 °F 74% 30.01 in 10.0 mi West 4.6 mph - N/A   Mostly Cloudy
10:53 AM 82.9 °F 90.2 °F 75.0 °F 77% 30.01 in 10.0 mi West 5.8 mph - N/A   Mostly Cloudy
11:37 AM 84.9 °F 93.3 °F 75.0 °F 72% 30.00 in 10.0 mi Variable 3.5 mph - N/A   Scattered Clouds
11:53 AM 86.0 °F 96.0 °F 75.9 °F 72% 29.99 in 10.0 mi West 5.8 mph - N/A   Scattered Clouds
12:53 PM 87.1 °F 97.3 °F 75.9 °F 69% 29.96 in 10.0 mi Variable 4.6 mph - N/A   Scattered Clouds
1:53 PM 89.1 °F 100.2 °F 75.9 °F 65% 29.94 in 10.0 mi Calm Calm - N/A   Scattered Clouds
2:53 PM 87.1 °F 97.3 °F 75.9 °F 69% 29.93 in 10.0 mi WNW 5.8 mph - N/A   Clear
3:53 PM 88.0 °F 96.5 °F 73.9 °F 63% 29.91 in 10.0 mi West 5.8 mph - N/A   Scattered Clouds
4:53 PM 86.0 °F 93.0 °F 73.0 °F 65% 29.92 in 10.0 mi West 6.9 mph - N/A   Clear
5:53 PM 84.0 °F 93.7 °F 77.0 °F 79% 29.92 in 10.0 mi West 9.2 mph - N/A   Clear
6:53 PM 82.0 °F 91.0 °F 78.1 °F 88% 29.92 in 10.0 mi West 5.8 mph - 0.00 in   Scattered Clouds
7:53 PM 80.1 °F 86.4 °F 78.1 °F 94% 29.94 in 10.0 mi SW 8.1 mph - 0.00 in   Clear
8:53 PM 79.0 °F - 78.1 °F 97% 29.94 in 10.0 mi SW 4.6 mph - N/A   Clear
9:53 PM 78.1 °F - 77.0 °F 96% 29.95 in 10.0 mi SW 5.8 mph - 0.00 in   Clear
10:53 PM 77.0 °F - 77.0 °F 100% 29.96 in 10.0 mi SSW 3.5 mph - N/A   Clear
11:53 PM 77.0 °F - 77.0 °F 100% 29.96 in 10.0 mi South 4.6 mph - N/A   Partly Cloudy